Etusivu
METAR-TAF:

METAR-TAF

Lentoasemat :

Lycksele, Ruotsi

Leveyspiiri: 64-32-51N, Pituuspiiri: 018-43-03E, korkeus merenpinnasta: 211 m

Tämänhetkinen sää

Tämä raportti tehtiin 13 minuuttia sitten, kello 14.50 UTC
tyyntä
Lämpötila -22°C
Kosteus 70%
Ilmanpaine 984 hPa
Näkyvyys 10 km tai enemmän

METAR: ESNL 131450Z AUTO 00000KT 9999 NCD M22/M26 Q0984

Aika: 16:03 (15:03 UTC)


TAF: puuttuu

Säähavainnot ja -ennusteet yli 4000 lentoasemalta (METAR- ja TAF-raportit).

Käytössä olevat sääasemat on merkitty karttaan keltaisilla ja punaisilla pisteillä.

Aseta hiiri pisteen päälle nähdäksesi sääaseman nimen.

Klikkaa sitten nähdäksesi säähavainnot ja -ennusteet.

Kartan vaihtaminen: klikkaa mustalla rastilla varustettuja vihreitä pisteitä, niin voit zoomata sisään; viivalla varustettua vihreää pistettä, niin voit zoomata ulos tai vihreitä nuolia, niin pääset viereisille kartoille.


METAR-TAF: